IRIDE FM7

导读

IRIDE FM7是意大利IRIDE多星座地球观测项目下的卫星,于2025年11月28日发射。该项目由意大利政府牵头,欧空局与意大利航天局合作推进,获欧盟复苏计划资金支持。 IRIDE FM7所属星座配备光学观测设备,将为意大利提供海岸海洋监测、土地利用分析、应急响应与安全服务的高质量遥感数据,助力提升欧洲地球观测能力,推动航天领域技术创新,整个IRIDE星座预计于2026年6月正式投入运营。

Basic Information
目录编号:
66701
目录名称:
IRIDE-MS1-EAG2-7
国际标识:
2025-276AM
轨道中心:
EARTH
卫星名称:
IRIDE FM7
卫星全名:
IRIDE FM7
卫星状态:
在轨 (已飞行281 天)
发射日期:
2025-11-28 UTC
国别 :
意大利 (IT)
星等 :
--
Orbit Information
数据来源 国际轨道数据
星历时间: 2026-09-05T19:12:49+0800
6小时前
查看轨道信息
半长轴: 6881.063km
偏心率: 0.0006198
轨道倾角: 97.416°
近地点辐角 86.560°
升交点赤经 320.843°
平近点角 273.634°
近地点: 498.661km
远地点: 507.191km
周期: 94.677分钟
每日圈数: 15.209661
Detailed Information
使用方式:
暂无
2D Orbit Map
3D Orbit Map
Orbit Altitude Analysis Chart
Orbit Inclination Analysis Chart
Orbit Comprehensive Analysis Chart
View Comprehensive Chart
Conjunction Data List
Event ID Objects TCA Miss Dist (km) Collision Risk Probability Collision Risk Index (CRI) Action
CDM_260908-004505-245206-670121
2026-09-08T
00:45:58+0000
1.477 km
极远距离
3.745403E-6 低风险 0.46
CDM_260903-014805-378306-670121
2026-09-03T
01:48:22+0000
2.258 km
极远距离
1.997055E-6 低风险 0.41